Showing default

UK-DMC, 27942

Orbit data source: Space-Track

UK-DMC, 27942 is a payload satellite owned by BNSC (UK) in SSO that was launched on Sat, 27 Sep 2003 UTC via a KOSMOS 11K65M launch vehicle from the Plesetsk Missile And Space Complex (PKMTR). Payload-class satellites include a variety of spacecraft equipped with specific instruments for various scientific and technological missions. These include communications satellites like Starlink; space stations such as the ISS; scientific satellites like the Hubble; Earth observation satellites from companies like Planet Labs, Umbra, and HawkEye 360; GPS; miniature CubeSats for education and research; and military/defense satellites.

Loading next visibility...
Identifier
27942, 2003-042D
Orbit
SSO
Country
Flag of UKUK
Related business
Manufacturer
SSTL
Mission
Non-operational Civil Imaging
Bus & Motor
SSTL-100, Unknown motor
Mass
100 kg wet, 85.4 kg dry
Launch date (UTC)
2003-09-27 (23 years ago)
Launch vehicle
KOSMOS 11K65M
Launch site
Plesetsk Missile And Space Complex (PKMTR)
Object type
Payload
Rocket body
Debris
Shape & HBR
Box + 1 Arm, 3.3 m
Radar Cross Section
0.540 m², Medium (>0.1 m² and < 1m²)

Expand to show TLE details & history
Last TLE update: 5 hours ago

TLE from 5 hours ago
0 UK-DMC
1 27942U 03042D   26121.79761247  .00001152  00000-0  13223-3 0  9991
2 27942  98.0817 310.1587 0053593 356.8085   3.2781 14.86927897215879
Epoch: 2026-05-01T19:08Z
TLE epoch observation values (Epoch: 2026-05-01T19:08:33.717Z)
Latitude
0.00004°
Longitude
163.2935°
Altitude
573.182 km
Speed
7.594 km/s
True Right ascension
20h 40m 38s
True Declination
0° 00' 00"
Sunlit
Object was in daylight at epoch
Visualization orbit readout
Latitude
Unknown
Longitude
Unknown
Altitude
Unknown
Speed
Unknown
Apparent Right ascension
Unknown
Apparent Declination
Unknown
Sunlit
N/A
Visualization observer readout
Local Sidereal Time
07:54:18
Azimuth
Unknown
Elevation
Unknown
Doppler factor
Unknown
Orbital elements
Apogee altitude
642.003 km
Perigee altitude
567.158 km
Semi-major axis
6,982.718 km
Eccentricity
0.00536
Inclination
98.0817°
RAAN
310.1587°
Arg. of periapsis
356.8085°
True anomaly
3.31345°
Mean anomaly
3.2781°
Eccentric anomaly
3.29575°
Mean motion
3.71969 °/min
Orbital period
96.78 mins
BSTAR
0.00013223
Loading maneuver chart data...
Computing Atmospheric mass density...
Loading historical data...
Loading historical data...
Loading historical data...
Loading historical data...
Loading historical data...
Loading historical data...
Loading historical data...

Documentation

Showing up to 5 results
|